User: anonymous   Login
Location: Unspecified
(0.0000°N, 0.0000°E)
Time: 09:01:00
(UTC+02:00)
Language:

Hamsat - Orbit

View from above orbital plane
View from above orbital plane
View from above satellite
View from above satellite

Ground track
Ground track

The orbit data is extracted from the following two-line orbital elements,

1 28650U 05017B   14296.05197621  .00004092  00000-0  47146-3 0  8884
2 28650 097.5635 294.6851 0026622 095.9991 264.4260 14.85969789512214
Epoch (UTC): 23 October 2014 01:14:50
Eccentricity: 0.0026622
inclination: 97.5635°
perigee height: 592 km
apogee height: 629 km
right ascension of ascending node: 294.6851°
argument of perigee: 95.9991°
revolutions per day: 14.85969789
mean anomaly at epoch: 264.4260°
orbit number at epoch: 51221

The dashed part of the orbit path shows where the satellite is in the earth's shadow,  

DLR